RH
12 12 10 9 11 17 28 100 100 100 100 100 100 100 100 100 100 100 100 100 100 100 100 100 100 100 100 93 100 100 98 98 100 100 100 90 100 88 92 77 88 76 64
11 12 13 13 11 11 16 21 62 100 100 100 100 100 100 100 100 100 100 100 100 100 100 100 100 100 97 96 100 100 100 100 100 100 100 100 98 91 89 87 57 26 30
12 12 12 13 14 13 11 11 15 36 99 100 100 100 100 100 100 100 100 100 100 100 100 100 100 100 100 97 100 100 100 100 100 100 99 98 84 62 51 46 24 28 29
12 12 11 11 12 14 14 13 11 12 13 40 88 100 100 100 100 100 100 100 100 100 100 100 100 100 100 100 100 100 100 99 90 90 74 53 33 30 32 38 46 40 41
12 12 12 11 11 12 14 15 15 15 13 11 12 14 29 53 75 93 98 99 100 94 90 82 84 87 87 76 64 69 73 76 61 33 27 30 36 36 42 38 41 41 35
13 12 12 12 12 12 12 13 14 15 15 15 14 13 12 12 13 14 19 26 31 29 26 21 28 23 28 28 22 21 22 26 28 28 33 35 37 38 43 38 33 29 27
13 14 13 13 12 12 13 14 14 14 15 15 16 16 16 16 15 14 14 14 15 15 14 14 14 15 16 17 18 18 19 20 20 20 22 22 22 21 21 21 21 19 19
13 13 13 14 13 13 12 13 14 14 15 15 16 16 16 16 16 16 16 16 16 16 16 16 17 17 17 17 17 18 18 18 17 17 17 17 18 18 18 16 16 15 16
14 14 13 13 14 14 14 13 12 12 13 14 14 15 16 16 16 16 16 16 16 15 15 15 15 15 15 16 17 18 18 18 17 16 16 15 15 16 16 15 15 15 15
14 15 14 14 14 13 13 14 14 14 14 13 13 13 14 14 14 14 14 13 12 12 12 12 12 12 12 12 13 13 14 14 14 14 13 13 13 12 12 11 11 9 8
15 14 14 14 14 14 14 13 13 13 14 14 14 14 14 14 13 13 13 13 12 12 12 11 11 11 10 10 10 10 10 9 9 9 9 9 9 9 9 8 8 8 8
16 16 14 12 12 13 12 12 12 13 13 12 12 13 14 14 13 13 13 13 13 13 12 12 12 11 11 11 11 11 11 11 10 10 10 10 9 9 9 9 9 8 8
16 15 15 14 13 12 11 12 12 12 12 13 14 13 13 13 13 13 13 13 14 14 14 14 13 13 13 13 13 13 13 12 12 12 11 10 10 10 10 10 9 9 8
14 11 10 10 9 8 8 8 10 12 12 12 12 13 14 14 13 13 13 14 13 13 14 13 13 13 13 13 13 14 13 13 13 12 12 12 11 11 10 10 9 8 9
11 10 9 8 8 8 7 8 7 7 8 10 12 12 13 13 13 13 14 15 14 14 14 13 12 12 12 12 12 13 13 13 13 13 13 12 12 11 10 10 10 9 9
9 8 8 9 9 8 9 9 9 8 8 8 8 9 11 12 13 13 14 14 14 15 16 16 15 14 13 12 12 12 12 13 12 12 12 12 12 12 11 11 10 10 9
11 9 8 8 8 9 12 13 13 9 8 8 8 8 8 9 10 13 15 14 13 14 14 15 16 17 17 16 15 14 13 13 13 13 13 13 13 12 12 12 11 11 11
10 10 10 9 9 9 10 15 15 11 8 7 7 8 8 8 8 8 10 12 14 15 15 15 15 16 17 18 19 18 18 17 16 17 17 16 16 15 14 13 14 14 13
11 9 9 9 9 9 10 11 14 13 8 7 6 7 7 7 8 8 7 8 9 11 13 14 15 16 16 17 18 19 20 20 19 19 20 20 20 19 19 19 19 18 15
12 13 13 13 14 14 13 12 11 13 11 8 6 6 6 6 7 8 8 8 8 8 8 9 11 13 15 16 17 18 19 19 19 19 19 19 19 20 21 22 23 22 20
8 8 10 11 12 13 14 15 13 10 10 10 8 7 6 6 6 6 6 8 8 8 8 8 8 9 11 13 15 16 17 17 18 18 19 20 19 20 20 22 23 25 24
6 6 6 7 8 11 13 14 13 11 10 10 8 7 6 6 6 5 5 6 6 7 7 7 7 7 8 9 10 11 12 14 15 16 16 17 18 20 21 22 23 23 25
4 5 5 6 6 8 10 11 12 12 11 10 9 8 8 6 5 5 5 5 5 6 6 6 7 8 8 8 9 10 10 10 11 12 13 14 16 17 19 22 24 24 24
4 4 4 5 5 6 7 9 10 12 11 10 9 9 8 7 6 6 5 5 5 5 5 5 6 6 7 8 9 10 10 10 11 10 11 11 11 12 13 16 19 20 21
4 4 4 4 4 5 5 6 8 9 10 11 11 10 9 8 8 6 6 5 5 5 5 5 5 5 6 6 8 9 10 11 11 10 11 11 11 11 11 12 12 14 14
4 4 4 4 4 4 4 5 6 7 8 9 10 10 10 9 8 7 6 5 5 5 5 5 4 5 5 6 6 7 9 10 11 11 12 12 12 12 12 11 11 12 12
Wind_Speed
127 132 136 141 144 146 149 153 148 144 143 142 142 141 139 138 138 136 134 133 133 132 132 130 128 128 129 126 125 121 118 113 112 115 114 114 113 120 118 118 119 117 115
122 126 130 135 140 145 147 149 156 154 149 144 143 143 143 140 140 138 139 138 137 134 138 136 133 131 132 126 122 123 122 119 118 119 123 121 124 129 129 122 116 107 100
119 121 125 130 134 137 141 146 148 154 159 157 152 146 141 140 140 139 138 138 138 137 135 132 134 134 134 129 130 131 129 127 128 131 130 130 131 126 117 114 112 109 104
117 119 122 124 128 133 137 141 143 147 150 157 162 161 159 155 153 150 148 146 143 142 141 141 141 139 141 141 139 138 136 136 135 134 131 126 123 120 116 114 113 113 110
115 118 120 121 124 127 131 135 138 141 145 148 152 155 157 159 160 161 162 159 156 154 151 151 149 148 148 146 140 140 138 135 132 127 124 123 123 122 120 120 117 117 115
111 114 118 119 121 123 126 129 133 136 140 142 145 147 148 150 152 153 155 155 155 155 152 149 148 146 144 144 142 140 137 135 133 132 129 127 125 124 122 122 121 118 117
106 111 114 116 119 120 122 125 129 131 133 136 138 142 144 145 145 145 145 146 146 147 147 146 145 144 142 141 139 139 137 136 135 133 131 128 125 124 123 121 120 117 116
103 105 110 113 115 117 118 120 123 125 127 130 132 134 136 137 139 140 140 140 140 140 140 140 139 139 138 137 137 135 134 134 132 131 127 125 123 121 121 118 117 115 112
101 103 105 108 112 115 118 118 119 120 122 124 126 127 130 131 132 133 133 133 133 134 134 134 134 133 132 131 130 129 128 128 126 125 124 122 120 118 118 114 114 112 110
98 100 102 105 108 111 113 116 119 121 122 121 122 124 125 125 125 126 127 127 128 127 126 126 125 124 123 123 122 122 121 121 119 119 118 117 116 114 112 109 107 105 102
92 94 97 101 104 107 110 113 115 117 120 122 123 123 123 123 122 123 123 125 123 123 121 120 118 117 117 115 113 111 109 109 108 106 106 106 105 104 103 102 101 99 97
91 93 95 96 97 100 104 107 110 113 116 119 120 121 122 122 122 121 120 120 120 120 120 119 118 117 116 114 112 109 107 106 104 103 102 101 100 99 98 98 96 93 92
88 91 94 95 96 96 97 99 103 105 109 114 117 119 120 120 118 118 118 118 118 117 117 117 117 115 114 111 109 108 106 105 102 101 100 98 97 96 95 93 92 90 90
85 85 86 88 90 92 93 93 95 100 103 106 108 111 115 116 116 116 116 115 115 114 114 113 112 110 109 107 106 105 104 102 100 98 97 96 94 94 91 89 89 85 85
81 82 81 80 83 85 87 90 90 93 96 100 103 105 106 107 111 112 112 114 113 112 112 111 109 107 106 104 102 100 99 97 96 95 93 93 92 90 89 87 84 83 81
75 74 75 77 79 81 81 85 88 89 90 93 96 98 102 102 103 105 107 110 108 109 109 109 108 106 104 102 100 97 95 95 94 92 91 90 89 88 86 83 80 79 79
74 73 73 72 73 74 76 79 84 85 83 86 90 93 94 97 98 99 101 103 102 103 104 104 104 104 103 102 99 97 95 93 91 90 88 88 86 86 84 82 80 78 77
71 72 73 73 73 71 70 72 76 79 78 80 82 85 88 91 94 93 97 97 99 100 100 99 99 99 98 98 98 97 96 94 92 90 88 86 85 83 81 80 78 76 76
72 73 72 73 73 72 70 70 71 74 75 73 75 77 81 85 88 90 92 92 94 95 96 97 97 97 96 95 95 94 93 93 92 90 88 87 85 83 80 79 77 76 76
63 65 66 66 68 69 68 67 68 69 71 71 69 70 73 76 80 85 86 89 91 91 92 92 94 95 95 94 93 92 91 90 89 87 85 85 83 82 80 78 77 76 74
58 58 58 58 59 61 62 62 62 64 65 68 67 67 68 69 74 78 80 83 86 88 90 91 91 91 91 92 92 92 90 88 87 86 84 81 79 78 77 75 75 74 73
53 53 54 54 54 56 58 57 56 58 60 62 63 62 62 65 69 70 73 76 79 82 84 86 88 89 89 88 88 87 87 86 86 84 82 81 78 75 73 72 72 71 71
48 49 51 52 52 51 54 54 53 54 54 57 57 57 58 64 63 64 66 69 73 76 79 81 83 85 87 88 87 85 84 82 82 81 79 76 74 73 72 71 70 70 69
47 48 49 50 50 51 50 51 51 51 52 51 53 54 56 58 59 61 61 62 64 68 73 77 79 81 82 84 86 86 84 82 80 78 75 73 71 70 70 69 68 68 66
45 46 47 49 50 50 50 50 50 49 49 49 50 51 53 54 57 58 58 57 58 61 65 70 74 77 80 81 82 83 83 82 80 77 75 74 71 69 68 66 64 64 63
42 44 45 47 48 48 48 49 48 48 48 48 48 48 49 51 54 55 56 56 57 58 61 64 67 70 74 78 80 81 81 81 80 77 76 75 72 69 67 65 63 61 60
Wind_Direction
236 236 235 234 234 234 234 233 234 238 240 242 243 244 246 248 249 251 253 254 255 257 259 262 263 265 266 269 269 269 270 270 268 271 271 275 275 279 283 283 283 285 285
237 237 237 236 236 235 235 236 235 235 236 239 243 245 245 247 248 250 252 253 255 256 258 260 262 263 264 267 266 266 267 268 268 271 272 274 277 280 282 282 281 281 281
238 238 238 238 238 238 238 237 238 237 237 238 239 240 242 244 246 248 249 252 254 254 256 257 258 259 261 263 262 264 266 268 269 271 275 275 278 280 278 278 279 280 280
238 239 239 240 240 239 239 239 239 239 240 240 240 242 243 243 245 246 247 249 250 252 254 254 256 258 260 264 266 267 268 269 270 271 273 275 276 277 278 278 278 278 279
238 238 239 239 240 240 241 241 242 242 242 242 242 244 245 246 248 248 250 253 254 256 258 259 260 261 262 264 266 266 268 269 270 271 271 271 273 274 274 275 276 277 278
239 240 240 240 240 240 241 242 242 243 243 244 244 245 246 247 247 249 250 251 253 254 256 258 259 260 261 262 263 264 265 266 267 268 269 270 271 272 273 273 274 275 275
240 240 241 241 241 241 242 243 243 244 245 245 246 247 247 248 249 249 250 251 253 254 256 257 259 260 261 261 263 264 265 266 266 267 268 270 271 271 271 272 273 273 273
242 242 242 242 243 243 243 243 244 245 246 246 247 248 248 249 250 251 252 254 255 255 256 258 259 260 261 262 263 264 265 266 266 267 268 270 270 270 271 271 271 273 274
246 244 243 243 244 244 244 245 245 245 246 246 247 248 249 249 250 251 252 253 254 255 256 258 259 260 261 262 263 263 264 265 265 265 267 268 270 271 271 272 272 272 273
247 247 246 245 245 244 244 245 246 246 247 247 248 248 249 250 251 252 252 253 254 255 257 258 258 259 260 260 260 261 262 263 264 264 265 266 267 268 268 268 269 270 271
249 249 247 246 246 246 245 245 245 245 246 247 248 249 250 250 251 252 252 253 254 256 257 258 259 260 261 262 263 264 265 265 265 265 265 265 266 267 268 270 271 272 273
250 250 250 249 247 247 247 246 245 245 246 246 247 248 248 249 250 251 252 253 254 255 256 256 257 258 260 261 262 263 263 264 265 266 267 267 268 269 270 271 271 272 271
250 250 250 250 251 251 248 248 247 246 246 246 246 247 248 248 248 249 251 252 253 254 255 256 257 257 259 260 261 261 262 263 264 264 266 267 267 269 269 270 270 270 270
253 252 250 250 250 251 252 251 247 247 245 245 245 245 246 247 248 248 249 250 251 252 253 254 255 256 257 258 259 259 260 261 262 263 264 265 266 267 267 267 268 269 268
252 252 251 250 251 253 252 251 250 246 245 245 245 245 245 245 245 246 247 248 249 250 252 253 254 255 256 256 257 257 258 259 260 260 261 262 263 264 265 266 267 267 267
256 252 251 251 253 254 254 252 250 248 245 244 244 244 244 244 245 245 245 246 246 248 249 251 252 253 254 255 256 256 256 257 258 259 259 261 262 263 264 264 265 266 266
256 255 256 254 253 253 253 252 250 248 246 244 243 243 243 243 243 243 245 246 246 246 247 248 249 251 252 253 254 255 255 255 257 258 259 260 261 261 262 263 264 264 265
253 254 254 254 255 253 252 251 249 246 245 244 243 242 242 243 242 242 242 242 244 244 246 246 247 248 250 251 252 253 254 255 255 255 257 258 259 260 261 262 263 264 265
252 252 252 253 255 255 254 252 248 246 244 244 243 243 242 242 243 242 243 242 242 243 243 244 245 246 247 248 249 250 252 253 253 254 254 255 257 258 259 260 262 263 264
252 253 253 252 251 254 253 251 248 245 244 243 242 242 243 242 242 242 242 243 242 242 242 243 243 244 245 246 247 248 249 250 251 252 252 254 254 256 257 259 260 261 262
251 251 252 251 250 251 253 251 248 244 242 243 242 241 240 241 242 243 242 242 242 241 241 242 242 242 243 244 245 246 247 248 249 250 251 252 253 254 256 257 259 260 261
252 251 251 250 249 248 251 249 247 244 242 241 240 239 238 239 240 241 241 242 242 242 243 242 242 242 242 243 243 245 246 247 248 249 249 250 251 253 255 257 259 260 261
253 251 251 251 250 247 246 248 247 246 244 240 239 238 237 238 238 239 241 241 242 242 242 243 242 242 242 243 243 244 245 246 246 248 249 250 250 251 253 254 256 258 260
252 251 249 249 250 250 247 246 246 245 242 240 239 238 238 239 239 240 240 240 240 241 242 243 242 242 242 241 242 243 243 245 245 247 248 249 250 251 252 253 255 257 258
251 250 249 247 246 247 248 246 246 244 243 243 241 240 240 239 239 239 240 241 241 242 242 242 242 241 241 241 242 242 242 243 244 245 246 247 248 249 251 252 253 255 257
249 248 247 247 246 245 245 246 245 244 244 244 243 242 241 241 241 240 240 242 243 244 244 243 242 241 241 241 241 241 241 242 242 243 244 245 246 247 248 250 251 253 254